カタログに戻る

STARLINK-32249

運用中通信VLEO
NORAD 60444·PAYLOAD·🇺🇸 United States

打ち上げ Aug 12, 2024 から Cape Canaveral Space Force Station

Loading…

次のパス (今後24時間)

TLE

最新Source: CelesTrak SupGP

元期: Sep 14, 2026, 14:24 UTC

1 60444C 24144V   26257.60048611 -.00041573  00000+0 -12279-2 0  2572
2 60444  53.1581  55.4247 0001114  96.2614 202.6133 15.34421859    15

AllMySatでSTARLINK-32249をリアルタイム追跡

Download on the App Store